Dewpoint
58 56 56 55 54 53 51 50 50 50 49 49 50 51 51 52 52 53 54 53 53 53
53 53 52 52 52 51 50 49 49 49 48 49 49 50 50 50 50 51 51 51 51 52
46 47 47 48 47 47 47 47 47 46 47 47 47 47 47 48 49 50 50 50 50 51
43 43 43 43 44 45 45 45 44 44 44 44 44 44 44 45 45 48 48 49 49 49
42 42 42 41 42 43 43 42 42 42 42 42 42 42 42 42 43 45 46 47 47 47
41 41 41 40 41 41 41 41 41 40 40 40 41 40 40 40 41 43 44 45 45 45
40 40 40 40 40 40 40 39 39 39 39 39 39 39 39 39 39 39 40 40 41 42
40 40 39 39 39 39 39 39 38 38 38 38 38 38 38 39 39 39 39 39 39 40
39 39 39 38 38 38 38 37 37 37 37 37 37 38 39 40 39 39 38 38 39 40
39 38 38 38 38 37 37 36 36 36 37 36 36 39 40 41 39 38 38 37 37 36
39 38 38 38 37 37 36 36 35 36 36 36 37 39 40 40 37 37 36 36 34 33
39 38 37 37 37 36 36 35 35 36 37 36 35 38 38 36 35 35 34 34 32 30
39 38 37 37 37 36 36 36 36 36 37 36 35 37 36 33 31 32 31 27 27 32
38 38 37 37 36 36 36 36 36 36 35 35 35 34 37 34 28 29 28 26 25 27
Wind_Speed
5 7 7 13 13 13 10 10 13 12 10 9 8 4 3 4 6 6 5 8 9 10
5 6 7 8 10 14 16 15 16 13 10 5 3 2 2 5 7 6 6 7 7 8
3 4 4 6 9 7 3 4 7 5 3 2 1 2 4 5 6 7 6 6 7 7
4 6 8 6 2 7 6 4 6 5 3 3 3 3 4 5 7 9 9 8 7 8
6 5 5 8 9 9 8 6 6 4 2 3 3 3 6 6 6 9 11 10 7 7
8 9 9 8 9 10 9 7 4 3 3 4 4 4 4 5 7 7 8 9 8 8
11 11 10 8 8 7 7 6 4 3 3 4 3 2 2 4 5 4 3 2 2 4
12 10 9 9 8 6 6 5 4 3 3 3 3 4 4 5 4 5 3 1 2 2
13 12 12 10 10 9 8 7 5 5 5 5 4 4 5 5 6 5 5 4 3 4
15 15 14 12 12 11 10 8 7 6 6 6 5 5 6 7 4 6 6 6 6 6
18 17 14 14 14 12 9 10 8 8 7 6 6 4 2 4 3 4 4 6 6 6
18 18 17 18 17 13 11 9 8 7 9 9 7 6 6 4 5 5 5 5 5 5
16 18 19 18 17 11 10 10 10 11 10 10 10 8 8 6 6 7 7 5 4 6
16 18 18 17 13 13 13 11 10 12 10 11 10 9 10 9 8 9 8 9 7 6
Wind_Direction
255 225 211 181 178 162 202 179 170 173 194 192 199 198 244 270 267 252 244 255 253 262
237 209 194 193 181 172 192 190 185 177 191 196 192 172 249 262 260 254 262 267 272 270
161 141 156 171 183 180 219 155 149 151 142 151 224 230 230 256 273 265 265 256 270 266
185 148 135 130 84 150 136 148 147 149 176 204 249 270 277 278 283 272 269 264 251 264
212 201 199 171 164 153 156 165 168 160 184 251 282 285 272 289 291 281 269 266 258 239
210 200 195 184 176 174 169 176 161 164 223 261 261 264 290 303 296 288 278 267 248 240
227 211 203 194 189 179 171 170 168 185 220 229 217 250 292 293 291 287 264 274 248 220
229 216 204 199 190 171 166 162 162 185 212 218 235 252 263 264 264 254 244 125 117 137
224 211 206 196 182 174 170 167 179 204 213 224 245 252 266 257 245 231 220 201 162 131
213 211 204 191 182 183 185 186 201 208 207 221 233 256 257 245 212 212 207 193 167 132
213 208 201 193 194 190 189 199 201 207 206 207 220 218 234 148 170 183 188 182 173 164
211 207 199 203 200 197 190 193 202 207 202 208 219 210 183 161 168 173 184 186 186 182
210 205 206 204 199 191 190 200 203 215 207 210 212 209 197 183 186 200 204 207 217 215
214 208 204 197 191 191 195 196 205 214 219 208 205 213 218 195 193 203 208 216 213 220